Location: Peebles
(55.6412°N, 3.1714°W)
Time: 09:44:39
(UTC+01:00)

Meteor 2-10 - Pass Details

Date: 26 September 2021
Orbit: 737 x 869 km, 81.2° (Epoch: 20 October)

Event Time Altitude Azimuth Distance (km) Brightness Sun altitude
Rises 20:47:14 0° 172° (S) 3,412 7.1 -15.6°
Reaches altitude 10° 20:49:45 10° 167° (SSE) 2,466 6.3 -15.9°
Maximum altitude 20:55:05 48° 95° (E) 1,084 4.3 -16.6°
Drops below altitude 10° 21:00:16 10° 23° (NNE) 2,403 6.6 -17.3°
Sets 21:02:41 0° 18° (NNE) 3,317 7.4 -17.6°
